| time (UTC) | temp C | wind direction | speed KPH | gust KPH | rain 1hr cm | rain 24hr cm | rain mn cm | humidity % | barometer mb |
| 20260507232754 | 11 | 180 | 11.3 | 16.1 | 0.00 | 0.00 | 0.00 | 87 | 1014.7 |
| 20260507232254 | 11 | 157 | 12.9 | 17.7 | 0.00 | 0.00 | 0.00 | 87 | 1014.8 |
| 20260507231754 | 11 | 180 | 8.0 | 16.1 | 0.00 | 0.00 | 0.00 | 87 | 1014.9 |
| 20260507231254 | 11 | 180 | 12.9 | 12.9 | 0.00 | 0.00 | 0.00 | 87 | 1015.0 |
| 20260507230754 | 11 | 157 | 8.0 | 17.7 | 0.00 | 0.00 | 0.00 | 86 | 1014.9 |
| 20260507230254 | 11 | 180 | 9.7 | 20.9 | 0.00 | 0.00 | 0.00 | 86 | 1015.0 |
| 20260507225754 | 11 | 202 | 6.4 | 14.5 | 0.00 | 0.00 | 0.00 | 86 | 1015.1 |
| 20260507225254 | 11 | 157 | 6.4 | 12.9 | 0.00 | 0.00 | 0.00 | 86 | 1015.1 |
| 20260507224754 | 11 | 180 | 12.9 | 14.5 | 0.00 | 0.00 | 0.00 | 86 | 1015.1 |
| 20260507224254 | 11 | 157 | 12.9 | 17.7 | 0.00 | 0.00 | 0.00 | 87 | 1015.1 |
| 20260507223754 | 11 | 202 | 9.7 | 20.9 | 0.00 | 0.00 | 0.00 | 86 | 1015.1 |
| 20260507223254 | 11 | 180 | 6.4 | 20.9 | 0.00 | 0.00 | 0.00 | 86 | 1015.1 |
| 20260507222754 | 11 | 180 | 6.4 | 16.1 | 0.00 | 0.00 | 0.00 | 87 | 1015.1 |
| 20260507222254 | 11 | 157 | 12.9 | 17.7 | 0.00 | 0.00 | 0.00 | 86 | 1015.1 |
| 20260507221754 | 11 | 180 | 8.0 | 17.7 | 0.00 | 0.00 | 0.00 | 87 | 1015.2 |
| 20260507221254 | 11 | 157 | 11.3 | 17.7 | 0.00 | 0.00 | 0.00 | 86 | 1015.2 |
| 20260507220754 | 11 | 157 | 8.0 | 12.9 | 0.00 | 0.00 | 0.00 | 87 | 1015.2 |
| 20260507220254 | 11 | 157 | 9.7 | 16.1 | 0.00 | 0.00 | 0.00 | 86 | 1015.1 |
| 20260507215754 | 11 | 135 | 6.4 | 19.3 | 0.00 | 0.00 | 0.00 | 86 | 1015.0 |
| 20260507215254 | 12 | 157 | 19.3 | 19.3 | 0.00 | 0.00 | 0.00 | 86 | 1015.1 |
| 20260507214754 | 12 | 202 | 6.4 | 16.1 | 0.00 | 0.00 | 0.00 | 86 | 1015.1 |
| 20260507214254 | 12 | 157 | 11.3 | 14.5 | 0.00 | 0.00 | 0.00 | 86 | 1015.1 |
| 20260507213754 | 12 | 180 | 14.5 | 22.5 | 0.00 | 0.00 | 0.00 | 86 | 1015.1 |
| 20260507213254 | 12 | 180 | 9.7 | 14.5 | 0.00 | 0.00 | 0.00 | 86 | 1015.1 |
| 20260507212754 | 11 | 180 | 6.4 | 17.7 | 0.00 | 0.00 | 0.00 | 85 | 1015.2 |
| 20260507212254 | 12 | 202 | 6.4 | 14.5 | 0.00 | 0.00 | 0.00 | 86 | 1015.2 |
| 20260507211754 | 11 | 157 | 14.5 | 17.7 | 0.00 | 0.00 | 0.00 | 86 | 1015.2 |
| 20260507211254 | 11 | 180 | 16.1 | 19.3 | 0.00 | 0.00 | 0.00 | 85 | 1015.3 |
| 20260507210754 | 12 | 135 | 6.4 | 14.5 | 0.00 | 0.00 | 0.00 | 86 | 1015.3 |
| 20260507210254 | 12 | 202 | 6.4 | 14.5 | 0.00 | 0.00 | 0.00 | 86 | 1015.3 |
| 20260507205754 | 12 | 157 | 11.3 | 14.5 | 0.00 | 0.00 | 0.00 | 86 | 1015.3 |
| 20260507205254 | 12 | 180 | 14.5 | 24.1 | 0.00 | 0.00 | 0.00 | 85 | 1015.3 |
| 20260507204754 | 12 | 202 | 9.7 | 19.3 | 0.00 | 0.00 | 0.00 | 86 | 1015.3 |
| 20260507204254 | 12 | 157 | 4.8 | 22.5 | 0.00 | 0.00 | 0.00 | 86 | 1015.3 |
| 20260507203754 | 12 | 202 | 8.0 | 16.1 | 0.00 | 0.00 | 0.00 | 86 | 1015.3 |
| 20260507203254 | 12 | 157 | 6.4 | 12.9 | 0.00 | 0.00 | 0.00 | 86 | 1015.2 |
| 20260507202754 | 12 | 180 | 3.2 | 20.9 | 0.00 | 0.00 | 0.00 | 86 | 1015.2 |
| 20260507202254 | 12 | 180 | 12.9 | 12.9 | 0.00 | 0.00 | 0.00 | 86 | 1015.2 |
| 20260507201754 | 12 | 157 | 6.4 | 14.5 | 0.00 | 0.00 | 0.00 | 86 | 1015.1 |
| 20260507201254 | 12 | 202 | 11.3 | 16.1 | 0.00 | 0.00 | 0.00 | 86 | 1015.0 |
| 20260507200754 | 12 | 157 | 19.3 | 19.3 | 0.00 | 0.00 | 0.00 | 86 | 1015.1 |
| 20260507200254 | 12 | 135 | 4.8 | 14.5 | 0.00 | 0.00 | 0.00 | 86 | 1015.1 |
| 20260507195754 | 12 | 157 | 4.8 | 16.1 | 0.00 | 0.00 | 0.00 | 86 | 1015.1 |
| 20260507195254 | 12 | 202 | 11.3 | 16.1 | 0.00 | 0.00 | 0.00 | 87 | 1015.2 |
| 20260507194754 | 12 | 180 | 16.1 | 17.7 | 0.00 | 0.00 | 0.00 | 86 | 1015.2 |
| 20260507194254 | 12 | 157 | 16.1 | 17.7 | 0.00 | 0.00 | 0.00 | 86 | 1015.2 |
| 20260507193754 | 12 | 157 | 12.9 | 12.9 | 0.00 | 0.00 | 0.00 | 86 | 1015.2 |
| 20260507193254 | 12 | 157 | 8.0 | 17.7 | 0.00 | 0.00 | 0.00 | 86 | 1015.2 |
| 20260507192754 | 12 | 157 | 11.3 | 14.5 | 0.00 | 0.00 | 0.00 | 86 | 1015.3 |
| 20260507192254 | 12 | 157 | 6.4 | 16.1 | 0.00 | 0.00 | 0.00 | 86 | 1015.3 |
| 20260507191754 | 12 | 157 | 12.9 | 16.1 | 0.00 | 0.00 | 0.00 | 87 | 1015.3 |
| 20260507191255 | 12 | 157 | 8.0 | 12.9 | 0.00 | 0.00 | 0.00 | 86 | 1015.3 |
| 20260507190754 | 12 | 135 | 9.7 | 16.1 | 0.00 | 0.00 | 0.00 | 86 | 1015.2 |
| 20260507190254 | 12 | 157 | 6.4 | 12.9 | 0.00 | 0.00 | 0.00 | 86 | 1015.2 |
| 20260507185754 | 12 | 180 | 3.2 | 12.9 | 0.00 | 0.00 | 0.00 | 86 | 1015.2 |
| 20260507185254 | 12 | 180 | 8.0 | 16.1 | 0.00 | 0.00 | 0.00 | 86 | 1015.2 |
| 20260507184755 | 12 | 135 | 11.3 | 16.1 | 0.00 | 0.00 | 0.00 | 86 | 1015.2 |
| 20260507184254 | 12 | 157 | 12.9 | 14.5 | 0.00 | 0.00 | 0.00 | 86 | 1015.2 |
| 20260507183754 | 12 | 157 | 6.4 | 16.1 | 0.00 | 0.00 | 0.00 | 86 | 1015.2 |
| 20260507183254 | 12 | 157 | 16.1 | 16.1 | 0.00 | 0.00 | 0.00 | 85 | 1015.3 |
| 20260507182754 | 12 | 180 | 8.0 | 14.5 | 0.00 | 0.00 | 0.00 | 86 | 1015.1 |
| 20260507182254 | 12 | 135 | 8.0 | 19.3 | 0.00 | 0.00 | 0.00 | 86 | 1015.1 |
| 20260507181754 | 12 | 180 | 4.8 | 19.3 | 0.00 | 0.00 | 0.00 | 85 | 1015.1 |
| 20260507181254 | 12 | 157 | 9.7 | 19.3 | 0.00 | 0.00 | 0.00 | 84 | 1015.1 |
| 20260507180754 | 12 | 180 | 16.1 | 17.7 | 0.00 | 0.00 | 0.00 | 85 | 1015.1 |
| 20260507180254 | 12 | 180 | 8.0 | 17.7 | 0.00 | 0.00 | 0.00 | 85 | 1015.0 |
| 20260507175754 | 12 | 180 | 6.4 | 16.1 | 0.00 | 0.00 | 0.00 | 85 | 1015.0 |
| 20260507175254 | 12 | 157 | 8.0 | 16.1 | 0.00 | 0.00 | 0.00 | 85 | 1015.0 |
| 20260507174754 | 12 | 180 | 11.3 | 19.3 | 0.00 | 0.00 | 0.00 | 85 | 1014.9 |
| 20260507174254 | 12 | 157 | 6.4 | 16.1 | 0.00 | 0.00 | 0.00 | 85 | 1015.0 |
| 20260507173754 | 12 | 157 | 9.7 | 14.5 | 0.00 | 0.00 | 0.00 | 86 | 1014.9 |
| 20260507173254 | 12 | 180 | 14.5 | 17.7 | 0.00 | 0.00 | 0.00 | 86 | 1014.9 |
| 20260507172754 | 12 | 157 | 16.1 | 16.1 | 0.00 | 0.00 | 0.00 | 85 | 1014.9 |
| 20260507172254 | 12 | 157 | 9.7 | 17.7 | 0.00 | 0.00 | 0.00 | 86 | 1014.8 |
| 20260507171754 | 12 | 157 | 6.4 | 17.7 | 0.00 | 0.00 | 0.00 | 86 | 1014.8 |
| 20260507171254 | 12 | 135 | 12.9 | 19.3 | 0.00 | 0.00 | 0.00 | 86 | 1014.8 |
| 20260507170754 | 12 | 157 | 9.7 | 12.9 | 0.00 | 0.00 | 0.00 | 85 | 1014.9 |
| 20260507170254 | 12 | 157 | 12.9 | 19.3 | 0.00 | 0.00 | 0.00 | 85 | 1014.8 |
| 20260507165754 | 12 | 157 | 9.7 | 20.9 | 0.00 | 0.00 | 0.00 | 85 | 1014.8 |
| 20260507165254 | 12 | 157 | 9.7 | 17.7 | 0.00 | 0.00 | 0.00 | 85 | 1014.9 |
| 20260507164754 | 12 | 157 | 8.0 | 17.7 | 0.00 | 0.00 | 0.00 | 84 | 1015.0 |
| 20260507164254 | 12 | 157 | 9.7 | 16.1 | 0.00 | 0.00 | 0.00 | 84 | 1014.9 |
| 20260507163754 | 12 | 157 | 16.1 | 16.1 | 0.00 | 0.00 | 0.00 | 84 | 1014.9 |
| 20260507163254 | 12 | 135 | 6.4 | 16.1 | 0.00 | 0.00 | 0.00 | 84 | 1014.9 |
| 20260507162754 | 12 | 157 | 8.0 | 12.9 | 0.00 | 0.00 | 0.00 | 83 | 1014.9 |
| 20260507162254 | 12 | 157 | 9.7 | 17.7 | 0.00 | 0.00 | 0.00 | 83 | 1014.8 |
| 20260507161754 | 12 | 157 | 8.0 | 14.5 | 0.00 | 0.00 | 0.00 | 82 | 1014.8 |
| 20260507161254 | 12 | 180 | 9.7 | 16.1 | 0.00 | 0.00 | 0.00 | 82 | 1014.8 |
| 20260507160754 | 12 | 157 | 8.0 | 17.7 | 0.00 | 0.00 | 0.00 | 82 | 1014.9 |
| 20260507160254 | 12 | 157 | 9.7 | 27.4 | 0.00 | 0.00 | 0.00 | 82 | 1015.0 |
| 20260507155754 | 13 | 180 | 16.1 | 17.7 | 0.00 | 0.00 | 0.00 | 81 | 1015.1 |
| 20260507155255 | 13 | 180 | 4.8 | 19.3 | 0.00 | 0.00 | 0.00 | 81 | 1015.0 |
| 20260507154754 | 13 | 180 | 6.4 | 20.9 | 0.00 | 0.00 | 0.00 | 80 | 1015.0 |
| 20260507154254 | 13 | 202 | 12.9 | 16.1 | 0.00 | 0.00 | 0.00 | 79 | 1015.1 |
| 20260507153754 | 14 | 180 | 8.0 | 14.5 | 0.00 | 0.00 | 0.00 | 80 | 1015.1 |
| 20260507153255 | 14 | 157 | 12.9 | 16.1 | 0.00 | 0.00 | 0.00 | 79 | 1015.2 |
| 20260507152755 | 14 | 112 | 12.9 | 19.3 | 0.00 | 0.00 | 0.00 | 79 | 1015.1 |
| 20260507152255 | 15 | 157 | 16.1 | 22.5 | 0.00 | 0.00 | 0.00 | 79 | 1015.2 |
| 20260507151754 | 15 | 157 | 12.9 | 20.9 | 0.00 | 0.00 | 0.00 | 79 | 1015.3 |
| 20260507151254 | 15 | 157 | 17.7 | 17.7 | 0.00 | 0.00 | 0.00 | 78 | 1015.4 |
| 20260507150755 | 15 | 180 | 6.4 | 19.3 | 0.00 | 0.00 | 0.00 | 78 | 1015.3 |
| 20260507150255 | 15 | 157 | 16.1 | 24.1 | 0.00 | 0.00 | 0.00 | 78 | 1015.4 |
| 20260507145755 | 15 | 157 | 11.3 | 22.5 | 0.00 | 0.00 | 0.00 | 78 | 1015.4 |
| 20260507145255 | 15 | 157 | 16.1 | 20.9 | 0.00 | 0.00 | 0.00 | 78 | 1015.3 |
| 20260507144755 | 15 | 180 | 16.1 | 17.7 | 0.00 | 0.00 | 0.00 | 76 | 1015.5 |
| 20260507144255 | 15 | 135 | 6.4 | 19.3 | 0.00 | 0.00 | 0.00 | 77 | 1015.5 |
| 20260507143755 | 15 | 157 | 14.5 | 20.9 | 0.00 | 0.00 | 0.00 | 77 | 1015.6 |
| 20260507143255 | 15 | 135 | 17.7 | 24.1 | 0.00 | 0.00 | 0.00 | 76 | 1015.5 |
| 20260507142755 | 15 | 135 | 8.0 | 19.3 | 0.00 | 0.00 | 0.00 | 77 | 1015.5 |
| 20260507142255 | 15 | 135 | 8.0 | 19.3 | 0.00 | 0.00 | 0.00 | 77 | 1015.5 |
| 20260507141755 | 15 | 157 | 11.3 | 20.9 | 0.00 | 0.00 | 0.00 | 75 | 1015.6 |
| 20260507141255 | 15 | 180 | 14.5 | 20.9 | 0.00 | 0.00 | 0.00 | 76 | 1015.6 |
| 20260507140755 | 15 | 157 | 20.9 | 20.9 | 0.00 | 0.00 | 0.00 | 75 | 1015.6 |
| 20260507140255 | 15 | 157 | 9.7 | 19.3 | 0.00 | 0.00 | 0.00 | 75 | 1015.7 |
| 20260507135755 | 15 | 157 | 11.3 | 17.7 | 0.00 | 0.00 | 0.00 | 76 | 1015.7 |
| 20260507135255 | 16 | 157 | 11.3 | 19.3 | 0.00 | 0.00 | 0.00 | 75 | 1015.7 |
| 20260507134755 | 15 | 157 | 14.5 | 19.3 | 0.00 | 0.00 | 0.00 | 74 | 1015.6 |
| 20260507134255 | 16 | 157 | 11.3 | 22.5 | 0.00 | 0.00 | 0.00 | 74 | 1015.6 |
| 20260507133755 | 16 | 112 | 8.0 | 22.5 | 0.00 | 0.00 | 0.00 | 74 | 1015.7 |
| 20260507133255 | 16 | 180 | 14.5 | 20.9 | 0.00 | 0.00 | 0.00 | 74 | 1015.7 |
| 20260507132755 | 16 | 157 | 16.1 | 24.1 | 0.00 | 0.00 | 0.00 | 74 | 1015.7 |
| 20260507132255 | 16 | 135 | 8.0 | 25.7 | 0.00 | 0.00 | 0.00 | 74 | 1015.7 |
| 20260507131755 | 16 | 157 | 22.5 | 22.5 | 0.00 | 0.00 | 0.00 | 74 | 1015.7 |
| 20260507131255 | 16 | 157 | 16.1 | 20.9 | 0.00 | 0.00 | 0.00 | 73 | 1015.8 |
| 20260507130755 | 16 | 157 | 19.3 | 24.1 | 0.00 | 0.00 | 0.00 | 74 | 1015.9 |
| 20260507130255 | 16 | 157 | 16.1 | 25.7 | 0.00 | 0.00 | 0.00 | 74 | 1015.8 |
| 20260507125755 | 16 | 157 | 14.5 | 24.1 | 0.00 | 0.00 | 0.00 | 72 | 1016.0 |
| 20260507125255 | 16 | 135 | 12.9 | 22.5 | 0.00 | 0.00 | 0.00 | 71 | 1016.0 |
| 20260507124755 | 17 | 157 | 11.3 | 19.3 | 0.00 | 0.00 | 0.00 | 71 | 1016.0 |
| 20260507124255 | 17 | 157 | 17.7 | 20.9 | 0.00 | 0.00 | 0.00 | 69 | 1015.9 |
| 20260507123755 | 17 | 135 | 17.7 | 25.7 | 0.00 | 0.00 | 0.00 | 71 | 1015.9 |
| 20260507123255 | 17 | 157 | 14.5 | 20.9 | 0.00 | 0.00 | 0.00 | 72 | 1016.0 |
| 20260507122755 | 16 | 180 | 16.1 | 22.5 | 0.00 | 0.00 | 0.00 | 72 | 1016.1 |
| 20260507122255 | 16 | 157 | 11.3 | 24.1 | 0.00 | 0.00 | 0.00 | 72 | 1016.1 |
| 20260507121755 | 17 | 157 | 14.5 | 25.7 | 0.00 | 0.00 | 0.00 | 69 | 1016.2 |
| 20260507121255 | 17 | 157 | 16.1 | 20.9 | 0.00 | 0.00 | 0.00 | 70 | 1016.3 |
| 20260507120755 | 17 | 135 | 12.9 | 19.3 | 0.00 | 0.00 | 0.00 | 68 | 1016.3 |
| 20260507120255 | 17 | 157 | 9.7 | 24.1 | 0.00 | 0.00 | 0.00 | 69 | 1016.4 |
| 20260507115755 | 17 | 157 | 12.9 | 16.1 | 0.00 | 0.00 | 0.00 | 69 | 1016.4 |
| 20260507115255 | 17 | 157 | 14.5 | 16.1 | 0.00 | 0.00 | 0.00 | 69 | 1016.4 |
| 20260507114755 | 17 | 180 | 16.1 | 20.9 | 0.00 | 0.00 | 0.00 | 69 | 1016.4 |
| 20260507114255 | 17 | 157 | 14.5 | 20.9 | 0.00 | 0.00 | 0.00 | 68 | 1016.5 |
| 20260507113755 | 17 | 157 | 20.9 | 20.9 | 0.00 | 0.00 | 0.00 | 70 | 1016.5 |
| 20260507113255 | 18 | 157 | 17.7 | 22.5 | 0.00 | 0.00 | 0.00 | 68 | 1016.4 |
| 20260507112755 | 18 | 135 | 11.3 | 22.5 | 0.00 | 0.00 | 0.00 | 67 | 1016.5 |
| 20260507112255 | 18 | 157 | 11.3 | 19.3 | 0.00 | 0.00 | 0.00 | 66 | 1016.4 |
| 20260507111755 | 18 | 157 | 12.9 | 19.3 | 0.00 | 0.00 | 0.00 | 66 | 1016.4 |
| 20260507111255 | 18 | 157 | 16.1 | 19.3 | 0.00 | 0.00 | 0.00 | 65 | 1016.4 |
| 20260507110755 | 18 | 135 | 19.3 | 19.3 | 0.00 | 0.00 | 0.00 | 67 | 1016.4 |
| 20260507110255 | 18 | 157 | 17.7 | 19.3 | 0.00 | 0.00 | 0.00 | 65 | 1016.5 |
| 20260507105755 | 18 | 135 | 8.0 | 17.7 | 0.00 | 0.00 | 0.00 | 65 | 1016.4 |
| 20260507105255 | 18 | 157 | 16.1 | 17.7 | 0.00 | 0.00 | 0.00 | 66 | 1016.4 |
| 20260507104755 | 18 | 135 | 9.7 | 19.3 | 0.00 | 0.00 | 0.00 | 66 | 1016.4 |
| 20260507104255 | 18 | 180 | 6.4 | 17.7 | 0.00 | 0.00 | 0.00 | 66 | 1016.3 |
| 20260507103755 | 18 | 135 | 17.7 | 19.3 | 0.00 | 0.00 | 0.00 | 67 | 1016.4 |
| 20260507103255 | 18 | 112 | 9.7 | 16.1 | 0.00 | 0.00 | 0.00 | 67 | 1016.4 |
| 20260507102755 | 18 | 135 | 11.3 | 19.3 | 0.00 | 0.00 | 0.00 | 67 | 1016.4 |
| 20260507102255 | 18 | 157 | 16.1 | 19.3 | 0.00 | 0.00 | 0.00 | 68 | 1016.4 |
| 20260507101755 | 18 | 157 | 9.7 | 20.9 | 0.00 | 0.00 | 0.00 | 67 | 1016.4 |
| 20260507101255 | 18 | 157 | 17.7 | 17.7 | 0.00 | 0.00 | 0.00 | 67 | 1016.4 |
| 20260507100755 | 18 | 135 | 8.0 | 17.7 | 0.00 | 0.00 | 0.00 | 66 | 1016.3 |
| 20260507100255 | 18 | 157 | 11.3 | 20.9 | 0.00 | 0.00 | 0.00 | 66 | 1016.3 |
| 20260507095755 | 18 | 135 | 14.5 | 17.7 | 0.00 | 0.00 | 0.00 | 65 | 1016.4 |
| 20260507095255 | 18 | 157 | 14.5 | 16.1 | 0.00 | 0.00 | 0.00 | 66 | 1016.3 |
| 20260507094755 | 18 | 135 | 4.8 | 22.5 | 0.00 | 0.00 | 0.00 | 66 | 1016.4 |
| 20260507094255 | 18 | 157 | 22.5 | 22.5 | 0.00 | 0.00 | 0.00 | 64 | 1016.4 |
| 20260507093755 | 18 | 135 | 6.4 | 24.1 | 0.00 | 0.00 | 0.00 | 64 | 1016.4 |
| 20260507093255 | 19 | 180 | 11.3 | 14.5 | 0.00 | 0.00 | 0.00 | 64 | 1016.4 |
| 20260507092755 | 19 | 135 | 9.7 | 16.1 | 0.00 | 0.00 | 0.00 | 64 | 1016.4 |
| 20260507092255 | 18 | 157 | 4.8 | 17.7 | 0.00 | 0.00 | 0.00 | 64 | 1016.3 |
| 20260507091755 | 19 | 135 | 16.1 | 16.1 | 0.00 | 0.00 | 0.00 | 64 | 1016.3 |
| 20260507091255 | 20 | 135 | 14.5 | 25.7 | 0.00 | 0.00 | 0.00 | 64 | 1016.4 |
| 20260507090755 | 19 | 135 | 9.7 | 17.7 | 0.00 | 0.00 | 0.00 | 64 | 1016.4 |
| 20260507090255 | 20 | 157 | 9.7 | 17.7 | 0.00 | 0.00 | 0.00 | 64 | 1016.3 |
| 20260507085755 | 19 | 157 | 9.7 | 24.1 | 0.00 | 0.00 | 0.00 | 65 | 1016.3 |
| 20260507085255 | 19 | 157 | 24.1 | 24.1 | 0.00 | 0.00 | 0.00 | 65 | 1016.3 |
| 20260507084755 | 19 | 90 | 8.0 | 16.1 | 0.00 | 0.00 | 0.00 | 65 | 1016.4 |
| 20260507084255 | 19 | 135 | 9.7 | 17.7 | 0.00 | 0.00 | 0.00 | 66 | 1016.3 |
| 20260507083755 | 19 | 157 | 6.4 | 17.7 | 0.00 | 0.00 | 0.00 | 66 | 1016.2 |
| 20260507083255 | 19 | 112 | 8.0 | 16.1 | 0.00 | 0.00 | 0.00 | 65 | 1016.2 |
| 20260507082755 | 18 | 157 | 8.0 | 12.9 | 0.00 | 0.00 | 0.00 | 66 | 1016.3 |
| 20260507082255 | 18 | 157 | 12.9 | 19.3 | 0.00 | 0.00 | 0.00 | 67 | 1016.3 |
| 20260507081755 | 18 | 157 | 8.0 | 19.3 | 0.00 | 0.00 | 0.00 | 68 | 1016.4 |
| 20260507081255 | 18 | 135 | 6.4 | 19.3 | 0.00 | 0.00 | 0.00 | 67 | 1016.4 |
| 20260507080755 | 18 | 157 | 4.8 | 20.9 | 0.00 | 0.00 | 0.00 | 67 | 1016.3 |
| 20260507080255 | 18 | 180 | 9.7 | 17.7 | 0.00 | 0.00 | 0.00 | 67 | 1016.3 |
| 20260507075755 | 18 | 135 | 8.0 | 17.7 | 0.00 | 0.00 | 0.00 | 67 | 1016.3 |
| 20260507075255 | 18 | 157 | 12.9 | 19.3 | 0.00 | 0.00 | 0.00 | 67 | 1016.3 |
| 20260507074755 | 18 | 157 | 16.1 | 16.1 | 0.00 | 0.00 | 0.00 | 66 | 1016.1 |
| 20260507074255 | 18 | 157 | 4.8 | 16.1 | 0.00 | 0.00 | 0.00 | 66 | 1016.1 |
| 20260507073755 | 18 | 157 | 8.0 | 16.1 | 0.00 | 0.00 | 0.00 | 68 | 1016.1 |
| 20260507073255 | 18 | 157 | 11.3 | 14.5 | 0.00 | 0.00 | 0.00 | 67 | 1016.1 |
| 20260507072755 | 18 | 135 | 9.7 | 16.1 | 0.00 | 0.00 | 0.00 | 68 | 1016.1 |
| 20260507072255 | 18 | 157 | 9.7 | 16.1 | 0.00 | 0.00 | 0.00 | 68 | 1016.1 |
| 20260507071755 | 18 | 157 | 6.4 | 19.3 | 0.00 | 0.00 | 0.00 | 68 | 1016.2 |
| 20260507071255 | 18 | 157 | 9.7 | 14.5 | 0.00 | 0.00 | 0.00 | 68 | 1016.1 |
| 20260507070755 | 18 | 180 | 12.9 | 14.5 | 0.00 | 0.00 | 0.00 | 67 | 1016.0 |
| 20260507070255 | 18 | 157 | 9.7 | 16.1 | 0.00 | 0.00 | 0.00 | 67 | 1016.1 |
| 20260507065755 | 18 | 112 | 11.3 | 14.5 | 0.00 | 0.00 | 0.00 | 67 | 1016.0 |
| 20260507065255 | 18 | 135 | 6.4 | 12.9 | 0.00 | 0.00 | 0.00 | 67 | 1016.0 |
| 20260507064755 | 18 | 157 | 11.3 | 12.9 | 0.00 | 0.00 | 0.00 | 67 | 1015.9 |
| 20260507064255 | 18 | 157 | 9.7 | 12.9 | 0.00 | 0.00 | 0.00 | 68 | 1015.8 |
| 20260507063755 | 18 | 157 | 8.0 | 14.5 | 0.00 | 0.00 | 0.00 | 66 | 1015.9 |
| 20260507063255 | 19 | 135 | 9.7 | 11.3 | 0.00 | 0.00 | 0.00 | 67 | 1015.9 |
| 20260507062755 | 18 | 180 | 8.0 | 9.7 | 0.00 | 0.00 | 0.00 | 66 | 1015.9 |
| 20260507062255 | 19 | 157 | 4.8 | 9.7 | 0.00 | 0.00 | 0.00 | 65 | 1015.9 |
| 20260507061755 | 18 | 135 | 4.8 | 11.3 | 0.00 | 0.00 | 0.00 | 66 | 1015.8 |
| 20260507061255 | 18 | 157 | 6.4 | 11.3 | 0.00 | 0.00 | 0.00 | 68 | 1015.8 |
| 20260507060755 | 18 | 157 | 6.4 | 12.9 | 0.00 | 0.00 | 0.00 | 69 | 1015.8 |
| 20260507060255 | 18 | 157 | 9.7 | 9.7 | 0.00 | 0.00 | 0.00 | 70 | 1015.7 |
| 20260507055755 | 17 | 112 | 3.2 | 11.3 | 0.00 | 0.00 | 0.00 | 71 | 1015.8 |
| 20260507055255 | 17 | 180 | 4.8 | 11.3 | 0.00 | 0.00 | 0.00 | 71 | 1015.9 |
| 20260507054755 | 17 | 157 | 6.4 | 12.9 | 0.00 | 0.00 | 0.00 | 72 | 1015.9 |
| 20260507054255 | 17 | 202 | 8.0 | 12.9 | 0.00 | 0.00 | 0.00 | 72 | 1015.8 |
| 20260507053755 | 16 | 202 | 11.3 | 12.9 | 0.00 | 0.00 | 0.00 | 75 | 1015.7 |
| 20260507053255 | 15 | 180 | 3.2 | 16.1 | 0.00 | 0.00 | 0.00 | 77 | 1015.7 |
| 20260507052755 | 15 | 180 | 11.3 | 11.3 | 0.00 | 0.00 | 0.00 | 78 | 1015.6 |
| 20260507052255 | 14 | 157 | 6.4 | 12.9 | 0.00 | 0.00 | 0.00 | 78 | 1015.6 |
| 20260507051756 | 14 | 157 | 8.0 | 14.5 | 0.00 | 0.00 | 0.00 | 78 | 1015.6 |
| 20260507051255 | 14 | 157 | 4.8 | 11.3 | 0.00 | 0.00 | 0.00 | 77 | 1015.5 |
| 20260507050755 | 15 | 180 | 4.8 | 9.7 | 0.00 | 0.00 | 0.00 | 77 | 1015.5 |
| 20260507050255 | 15 | 202 | 6.4 | 9.7 | 0.00 | 0.00 | 0.00 | 76 | 1015.6 |
| 20260507045755 | 15 | 180 | 3.2 | 9.7 | 0.00 | 0.00 | 0.00 | 78 | 1015.5 |
| 20260507045255 | 14 | 180 | 6.4 | 11.3 | 0.00 | 0.00 | 0.00 | 81 | 1015.5 |
| 20260507044755 | 13 | 180 | 0.0 | 8.0 | 0.00 | 0.00 | 0.00 | 82 | 1015.4 |
| 20260507044255 | 13 | 180 | 4.8 | 8.0 | 0.00 | 0.00 | 0.00 | 84 | 1015.4 |
| 20260507043755 | 12 | 202 | 6.4 | 6.4 | 0.00 | 0.00 | 0.00 | 86 | 1015.4 |
| 20260507043255 | 11 | 157 | 3.2 | 4.8 | 0.00 | 0.00 | 0.00 | 88 | 1015.4 |
| 20260507042755 | 10 | 202 | 3.2 | 6.4 | 0.00 | 0.00 | 0.00 | 89 | 1015.4 |
| 20260507042255 | 10 | 180 | 4.8 | 6.4 | 0.00 | 0.00 | 0.00 | 89 | 1015.5 |
| 20260507041755 | 10 | 202 | 1.6 | 3.2 | 0.00 | 0.00 | 0.00 | 89 | 1015.5 |
| 20260507041255 | 10 | 225 | 0.0 | 1.6 | 0.00 | 0.00 | 0.00 | 89 | 1015.4 |
| 20260507040755 | 10 | 202 | 0.0 | 1.6 | 0.00 | 0.00 | 0.00 | 89 | 1015.4 |
| 20260507040255 | 10 | 225 | 0.0 | 1.6 | 0.00 | 0.00 | 0.00 | 89 | 1015.4 |
| 20260507035755 | 10 | 225 | 0.0 | 3.2 | 0.00 | 0.00 | 0.00 | 89 | 1015.4 |
| 20260507035255 | 10 | 247 | 0.0 | 3.2 | 0.00 | 0.00 | 0.00 | 90 | 1015.3 |
| 20260507034755 | 10 | 202 | 3.2 | 8.0 | 0.00 | 0.00 | 0.00 | 90 | 1015.3 |
| 20260507034255 | 10 | 202 | 3.2 | 6.4 | 0.00 | 0.00 | 0.00 | 90 | 1015.2 |
| 20260507033755 | 10 | 225 | 3.2 | 8.0 | 0.00 | 0.00 | 0.00 | 90 | 1015.1 |
| 20260507033255 | 10 | 225 | 3.2 | 8.0 | 0.00 | 0.00 | 0.00 | 90 | 1015.1 |
| 20260507032755 | 10 | 270 | 0.0 | 4.8 | 0.00 | 0.00 | 0.00 | 90 | 1015.0 |
| 20260507032255 | 10 | 225 | 1.6 | 6.4 | 0.00 | 0.00 | 0.00 | 91 | 1015.1 |
| 20260507031755 | 10 | 225 | 3.2 | 9.7 | 0.00 | 0.00 | 0.00 | 91 | 1015.0 |
| 20260507031255 | 9 | 180 | 9.7 | 12.9 | 0.00 | 0.00 | 0.00 | 91 | 1014.9 |
| 20260507030755 | 9 | 202 | 9.7 | 12.9 | 0.00 | 0.00 | 0.00 | 91 | 1014.8 |
| 20260507030255 | 9 | 202 | 11.3 | 16.1 | 0.00 | 0.00 | 0.00 | 91 | 1014.8 |
| 20260507025755 | 9 | 202 | 8.0 | 14.5 | 0.00 | 0.00 | 0.00 | 92 | 1014.7 |
| 20260507025255 | 10 | 180 | 4.8 | 6.4 | 0.00 | 0.00 | 0.00 | 92 | 1014.7 |
| 20260507024755 | 9 | 157 | 3.2 | 12.9 | 0.00 | 0.00 | 0.00 | 92 | 1014.7 |
| 20260507024255 | 9 | 202 | 6.4 | 9.7 | 0.00 | 0.00 | 0.00 | 92 | 1014.7 |
| 20260507023755 | 9 | 180 | 6.4 | 14.5 | 0.00 | 0.00 | 0.00 | 92 | 1014.7 |
| 20260507023255 | 9 | 202 | 6.4 | 9.7 | 0.00 | 0.00 | 0.00 | 92 | 1014.7 |
| 20260507022756 | 10 | 202 | 4.8 | 12.9 | 0.00 | 0.00 | 0.00 | 92 | 1014.7 |
| 20260507022256 | 10 | 202 | 8.0 | 11.3 | 0.00 | 0.00 | 0.00 | 92 | 1014.7 |
| 20260507021755 | 9 | 202 | 3.2 | 9.7 | 0.00 | 0.00 | 0.00 | 93 | 1014.6 |
| 20260507021256 | 9 | 202 | 6.4 | 8.0 | 0.00 | 0.00 | 0.00 | 93 | 1014.6 |
| 20260507020756 | 9 | 225 | 4.8 | 9.7 | 0.00 | 0.00 | 0.00 | 93 | 1014.6 |
| 20260507020256 | 9 | 202 | 8.0 | 8.0 | 0.00 | 0.00 | 0.00 | 93 | 1014.6 |
| 20260507015756 | 9 | 157 | 1.6 | 14.5 | 0.00 | 0.00 | 0.00 | 93 | 1014.6 |
| 20260507015256 | 9 | 202 | 4.8 | 6.4 | 0.00 | 0.00 | 0.00 | 93 | 1014.5 |
| 20260507014756 | 9 | 202 | 6.4 | 11.3 | 0.00 | 0.00 | 0.00 | 93 | 1014.5 |
| 20260507014256 | 9 | 225 | 8.0 | 8.0 | 0.00 | 0.00 | 0.00 | 93 | 1014.5 |
| 20260507013756 | 9 | 202 | 3.2 | 9.7 | 0.00 | 0.00 | 0.00 | 93 | 1014.5 |
| 20260507013256 | 8 | 157 | 8.0 | 8.0 | 0.00 | 0.00 | 0.00 | 93 | 1014.6 |
| 20260507012756 | 8 | 202 | 0.0 | 1.6 | 0.00 | 0.00 | 0.00 | 93 | 1014.6 |
| 20260507012256 | 8 | 225 | 0.0 | 0.0 | 0.00 | 0.00 | 0.00 | 93 | 1014.5 |
| 20260507011756 | 8 | 247 | 0.0 | 0.0 | 0.00 | 0.00 | 0.00 | 93 | 1014.5 |
| 20260507011256 | 8 | 270 | 0.0 | 91.7 | 0.00 | 0.00 | 0.00 | 93 | 1014.5 |
| 20260507010756 | 8 | 180 | 91.7 | 91.7 | 0.00 | 0.00 | 0.00 | 93 | 1014.5 |
| 20260507010256 | 8 | 225 | 3.2 | 3.2 | 0.00 | 0.00 | 0.00 | 93 | 1014.5 |
| 20260507005756 | 8 | 225 | 1.6 | 1.6 | 0.00 | 0.00 | 0.00 | 93 | 1014.5 |
| 20260507005256 | 8 | 225 | 1.6 | 3.2 | 0.00 | 0.00 | 0.00 | 93 | 1014.5 |
| 20260507004756 | 8 | 202 | 3.2 | 3.2 | 0.00 | 0.00 | 0.00 | 93 | 1014.5 |
| 20260507004256 | 8 | 247 | 0.0 | 3.2 | 0.00 | 0.00 | 0.00 | 93 | 1014.3 |
| 20260507003756 | 8 | 247 | 0.0 | 3.2 | 0.00 | 0.00 | 0.00 | 93 | 1014.3 |
| 20260507003256 | 8 | 247 | 3.2 | 3.2 | 0.00 | 0.00 | 0.00 | 93 | 1014.3 |
| 20260507002756 | 8 | 202 | 3.2 | 4.8 | 0.00 | 0.00 | 0.00 | 93 | 1014.3 |
| 20260507002256 | 8 | 202 | 1.6 | 3.2 | 0.00 | 0.00 | 0.00 | 93 | 1014.2 |
| 20260507001756 | 7 | 202 | 3.2 | 3.2 | 0.00 | 0.00 | 0.00 | 93 | 1014.2 |
| 20260507001256 | 8 | 202 | 0.0 | 0.0 | 0.00 | 0.00 | 0.00 | 93 | 1014.3 |
| 20260507000756 | 8 | 202 | 0.0 | 3.2 | 0.00 | 0.00 | 0.00 | 93 | 1014.3 |
| 20260507000256 | 9 | 202 | 3.2 | 3.2 | 0.00 | 0.00 | 0.00 | 93 | 1014.3 |
| 20260506235756 | 9 | 202 | 3.2 | 3.2 | 0.00 | 0.00 | 0.00 | 93 | 1014.3 |
| 20260506235256 | 9 | 202 | 3.2 | 8.0 | 0.00 | 0.00 | 0.00 | 93 | 1014.3 |
| 20260506234756 | 8 | 225 | 6.4 | 11.3 | 0.00 | 0.00 | 0.00 | 92 | 1014.3 |
| 20260506234256 | 8 | 180 | 3.2 | 3.2 | 0.00 | 0.00 | 0.00 | 92 | 1014.4 |
| 20260506233756 | 8 | 225 | 1.6 | 1.6 | 0.00 | 0.00 | 0.00 | 92 | 1014.4 |
| 20260506233256 | 8 | 202 | 0.0 | 3.2 | 0.00 | 0.00 | 0.00 | 92 | 1014.4 |